Regional Weather Roundup
Issued by NWS

Home | Current Version | Previous Version | Text Only | Print | Product List | Glossary On
Versions: 1 2 3 4 5 6 7 8 9 10 11 12 13 14 15 16 17 18 19 20 21 22 23 24 25 26 27 28 29 30 31 32 33 34 35 36 37 38 39 40 41 42 43 44 45 46 47 48 49 50
000
ASUS43 KFSD 260810
RWRSD

WEATHER ROUNDUP FOR SOUTH DAKOTA
NATIONAL WEATHER SERVICE SIOUX FALLS SD
300 AM CDT TUE JUL 26 2016

NOTE: "FAIR" INDICATES FEW OR NO CLOUDS BELOW 12,000 FEET WITH NO
SIGNIFICANT WEATHER AND/OR OBSTRUCTIONS TO VISIBILITY.


SDZ001>005-009-010-012>017-260900-
NORTHWEST AND NORTH CENTRAL SOUTH DAKOTA

CITY           SKY/WX    TMP DP  RH WIND       PRES   REMARKS
BUFFALO          N/A     69  52  54 E7        29.94S
FAITH            N/A     71  56  58 S13       29.97S
MOBRIDGE       MOCLDY    77  59  53 SE10      29.93S
$$

SDZ012>016-024>037-041>051-057-063-072>074-260900-
SOUTHWEST AND SOUTH CENTRAL SOUTH DAKOTA

CITY           SKY/WX    TMP DP  RH WIND       PRES   REMARKS
RAPID CTY ARPT CLEAR     70  59  68 SE7       30.02F
PIERRE         CLEAR     75  60  59 S14       29.97F
CUSTER         CLEAR     60  54  80 W5        30.19F
ELLSWORTH AFB  CLEAR     73  61  65 S8        30.01F
PHILIP         CLEAR     73  64  73 W5        29.98F
PINE RIDGE     CLEAR     74  64  71 S20G28    30.04F
WINNER         FAIR      75  60  59 S16G23    30.04F
$$

SDZ004>011-016>023-039-040-260900-
NORTHEAST SOUTH DAKOTA

CITY           SKY/WX    TMP DP  RH WIND       PRES   REMARKS
ABERDEEN       PTCLDY    68  58  70 S13       29.96S
WATERTOWN      CLEAR     70  62  76 S9        30.03F
BROOKINGS      PTCLDY    67  63  87 S9        30.06F
SISSETON         N/A     78  59  51 SW26G33   29.93S
$$

SDZ017-020-022-023-036>040-048>070-260900-
SOUTHEAST SOUTH DAKOTA

CITY           SKY/WX    TMP DP  RH WIND       PRES   REMARKS
SIOUX FALLS    CLEAR     71  63  75 S7        30.08S
HURON          CLEAR     67  60  78 S8        30.01S
CHAMBERLAIN    CLEAR     74  65  71 S9        30.03S
MITCHELL       CLEAR     68  62  81 S8        30.04S
YANKTON        CLEAR     70  61  73 S3        30.06F
$$

ABBREVIATIONS USED IN REMARKS
   TC - TEMPERATURE IN CELSIUS
  WCI - WIND CHILL INDEX
   HX - HEAT INDEX
  VSB - VISIBILITY





USA.gov is the U.S. government's official web portal to all federal, state and local government web resources and services.